Location: Newark
(45.4422°N, 16.2769°E)
Time: 11:08:00
(UTC+00:00)

Tiros 1 despin weight - Pass Details

Date: 18 December 2019
Orbit: 594 x 642 km, 48.2° (Epoch: 25 January)

Event Time Altitude Azimuth Distance (km) Brightness Sun altitude
Rises 07:03:05 0° 288° (WNW) 2,866 ? 3.9°
Reaches altitude 10° 07:05:36 10° 277° (W) 1,951 ? 4.2°
Maximum altitude 07:09:29 29° 217° (SW) 1,100 ? 4.7°
Drops below altitude 10° 07:13:18 10° 157° (SSE) 1,923 ? 5.2°
Sets 07:15:47 0° 146° (SE) 2,818 ? 5.6°
